FW8253 Weather Reports


time (UTC)temp
C
wind
direction
speed
KPH
gust
KPH
rain 1hr
cm
rain 24hr
cm
rain mn
cm
humidity
%
barometer
mb
20260504035503 8 207 0.0 0.0 0.00 0.00 0.00 97 1019.6
20260504034959 8 207 0.0 0.0 0.00 0.00 0.00 97 1019.7
20260504034457 8 207 0.0 0.0 0.00 0.00 0.00 96 1019.4
20260504033954 9 207 0.0 0.0 0.00 0.00 0.00 96 1019.5
20260504033452 9 207 0.0 0.0 0.00 0.00 0.00 96 1019.8
20260504032949 9 207 0.0 0.0 0.00 0.00 0.00 95 1019.5
20260504032446 9 207 0.0 0.0 0.00 0.00 0.00 96 1019.6
20260504031942 9 207 0.0 0.0 0.00 0.00 0.00 95 1019.7
20260504031439 9 207 0.0 0.0 0.00 0.00 0.00 95 1019.6
20260504030936 10 207 0.0 0.0 0.00 0.00 0.00 95 1019.5
20260504030433 10 207 0.0 0.0 0.00 0.00 0.00 94 1019.9
20260504025929 10 207 0.0 0.0 0.00 0.00 0.00 94 1019.7
20260504025426 10 207 0.0 0.0 0.00 0.00 0.00 94 1019.7
20260504024923 10 207 0.0 0.0 0.00 0.00 0.00 94 1019.6
20260504024420 10 207 0.0 0.0 0.00 0.00 0.00 94 1019.6
20260504023917 10 207 0.0 0.0 0.00 0.00 0.00 94 1019.6
20260504023413 10 207 0.0 0.0 0.00 0.00 0.00 94 1019.4
20260504022909 10 207 0.0 0.0 0.00 0.00 0.00 93 1019.6
20260504022406 10 207 0.0 0.0 0.00 0.00 0.00 93 1019.5
20260504021903 11 207 0.0 0.0 0.00 0.00 0.00 93 1019.2
20260504021400 11 207 0.0 0.0 0.00 0.00 0.00 93 1019.4
20260504020857 11 207 0.0 0.0 0.00 0.00 0.00 92 1019.3
20260504020353 11 207 0.0 0.0 0.00 0.00 0.00 93 1019.0
20260504015849 11 207 0.0 0.0 0.00 0.00 0.00 92 1019.3
20260504015346 11 207 0.0 0.0 0.00 0.00 0.00 92 1019.0
20260504014842 11 208 0.0 0.0 0.00 0.00 0.00 93 1018.9
20260504014338 11 208 0.0 0.0 0.00 0.00 0.00 93 1018.7
20260504013836 12 208 0.0 0.0 0.00 0.00 0.00 92 1018.9
20260504013333 12 208 0.0 0.0 0.00 0.00 0.00 92 1018.8
20260504012830 12 208 0.0 0.0 0.00 0.00 0.00 92 1018.8
20260504012328 12 208 0.0 0.0 0.00 0.00 0.00 92 1018.6
20260504011825 12 207 0.0 0.0 0.00 0.00 0.00 91 1018.8
20260504011321 13 207 0.0 0.0 0.00 0.00 0.00 90 1018.3
20260504010817 13 207 0.0 0.0 0.00 0.00 0.00 89 1018.5
20260504010313 13 208 0.0 0.0 0.00 0.00 0.00 88 1018.5
20260504005810 13 207 0.0 0.0 0.00 0.00 0.00 87 1018.4
20260504005307 13 207 0.0 0.0 0.00 0.00 0.00 86 1018.3
20260504004804 14 208 0.0 0.0 0.00 0.00 0.00 84 1018.3
20260504004302 14 207 0.0 0.0 0.00 0.00 0.00 83 1018.3
20260504003758 15 208 0.0 0.0 0.00 0.00 0.00 81 1018.2
20260504003255 15 208 0.0 0.0 0.00 0.00 0.00 79 1018.3
20260504002751 15 208 0.0 0.0 0.00 0.00 0.00 78 1018.0
20260504002249 15 208 0.0 0.0 0.00 0.00 0.00 76 1018.2
20260504001746 16 208 0.0 0.0 0.00 0.00 0.00 73 1017.9
20260504001243 16 208 0.0 0.0 0.00 0.00 0.00 72 1017.9
20260504000740 16 208 0.0 0.0 0.00 0.00 0.00 71 1017.8
20260504000237 17 208 0.0 0.0 0.00 0.00 0.00 72 1017.8
20260503235735 17 208 0.0 0.0 0.00 0.00 0.00 70 1017.8
20260503235232 17 208 0.0 0.0 0.00 0.00 0.00 67 1018.0
20260503234730 17 208 0.0 0.0 0.00 0.00 0.00 64 1017.8
20260503234227 18 208 0.0 0.0 0.00 0.00 0.00 61 1017.9
20260503233725 18 209 0.0 0.0 0.00 0.00 0.00 61 1017.8
20260503233220 18 195 0.0 0.0 0.00 0.00 0.00 59 1017.8
20260503232717 19 193 0.0 0.0 0.00 0.00 0.00 58 1017.8
20260503232214 19 251 0.0 0.0 0.00 0.00 0.00 55 1017.8
20260503231713 20 251 0.0 0.0 0.00 0.00 0.00 52 1017.7
20260503231209 20 251 0.0 0.0 0.00 0.00 0.00 48 1017.6
20260503230705 20 251 0.0 0.0 0.00 0.00 0.00 48 1017.7
20260503230202 20 251 0.0 0.0 0.00 0.00 0.00 47 1017.6
20260503225659 20 251 0.0 0.0 0.00 0.00 0.00 50 1017.8
20260503225154 20 251 0.0 0.0 0.00 0.00 0.00 49 1017.6
20260503224651 20 251 0.0 0.0 0.00 0.00 0.00 51 1017.7
20260503224149 21 252 0.0 0.0 0.00 0.00 0.00 49 1017.8
20260503223647 21 227 0.0 0.0 0.00 0.00 0.00 45 1018.2
20260503223143 21 226 0.0 0.0 0.00 0.00 0.00 42 1017.9
20260503222640 21 214 0.0 0.0 0.00 0.00 0.00 45 1017.9
20260503222138 21 210 0.0 0.0 0.00 0.00 0.00 40 1018.0
20260503221636 21 207 0.0 0.0 0.00 0.00 0.00 43 1017.8
20260503221133 22 207 0.0 0.0 0.00 0.00 0.00 44 1018.1
20260503220630 22 220 0.0 0.0 0.00 0.00 0.00 45 1018.1
20260503220127 22 238 0.0 0.0 0.00 0.00 0.00 41 1018.1
20260503215624 22 237 0.0 0.0 0.00 0.00 0.00 44 1018.0
20260503215120 22 162 0.0 0.0 0.00 0.00 0.00 41 1017.8
20260503214619 23 182 0.0 0.0 0.00 0.00 0.00 46 1018.1
20260503214115 23 238 0.0 0.0 0.00 0.00 0.00 40 1018.1
20260503213614 23 212 0.0 0.0 0.00 0.00 0.00 38 1018.0
20260503213110 23 246 0.0 0.0 0.00 0.00 0.00 42 1018.2
20260503212608 24 248 0.0 0.0 0.00 0.00 0.00 41 1018.1
20260503212105 23 244 0.0 0.0 0.00 0.00 0.00 42 1018.2
20260503211602 23 111 0.0 0.0 0.00 0.00 0.00 38 1018.2
20260503211057 23 230 0.0 0.0 0.00 0.00 0.00 40 1018.0
20260503210554 23 156 0.0 0.0 0.00 0.00 0.00 42 1018.2
20260503210050 23 282 0.0 0.0 0.00 0.00 0.00 40 1018.0
20260503205547 23 267 0.0 0.0 0.00 0.00 0.00 41 1018.1
20260503205044 23 141 0.0 0.0 0.00 0.00 0.00 38 1018.2
20260503204541 23 225 0.0 0.0 0.00 0.00 0.00 43 1018.1
20260503204038 23 209 0.0 0.0 0.00 0.00 0.00 38 1018.2
20260503203535 25 129 0.0 0.0 0.00 0.00 0.00 39 1018.2
20260503203032 24 250 0.0 0.0 0.00 0.00 0.00 41 1018.2
20260503202530 23 237 0.0 0.0 0.00 0.00 0.00 39 1018.5
20260503202027 23 248 0.0 0.0 0.00 0.00 0.00 43 1018.4
20260503201525 23 233 0.0 0.0 0.00 0.00 0.00 43 1018.8
20260503201022 23 209 0.0 0.0 0.00 0.00 0.00 41 1018.7
20260503200518 23 63 0.0 0.0 0.00 0.00 0.00 40 1018.9
20260503200015 23 246 0.0 0.0 0.00 0.00 0.00 43 1018.8
20260503195513 23 85 0.0 0.0 0.00 0.00 0.00 40 1018.8
20260503195009 22 100 0.0 0.0 0.00 0.00 0.00 42 1019.0
20260503194507 23 98 0.0 0.0 0.00 0.00 0.00 42 1019.0
20260503194006 23 253 0.0 0.0 0.00 0.00 0.00 45 1019.3
20260503193503 24 7 0.0 0.0 0.00 0.00 0.00 41 1019.4
20260503192958 23 179 0.0 0.0 0.00 0.00 0.00 44 1019.3
20260503192455 23 10 0.0 0.0 0.00 0.00 0.00 44 1019.6
20260503191950 23 230 0.0 0.0 0.00 0.00 0.00 44 1019.5
20260503191448 23 96 0.0 0.0 0.00 0.00 0.00 38 1019.6
20260503190944 23 242 0.0 0.0 0.00 0.00 0.00 48 1019.8
20260503190442 23 311 0.0 0.0 0.00 0.00 0.00 43 1019.8
20260503185938 23 219 0.0 0.0 0.00 0.00 0.00 41 1020.0
20260503185435 23 239 0.0 0.0 0.00 0.00 0.00 47 1020.0
20260503184934 22 233 0.0 0.0 0.00 0.00 0.00 44 1020.2
20260503184431 23 230 0.0 0.0 0.00 0.00 0.00 48 1020.4
20260503183927 23 230 0.0 0.0 0.00 0.00 0.00 44 1020.1
20260503183424 22 273 0.0 0.0 0.00 0.00 0.00 46 1020.4
20260503182921 22 218 0.0 0.0 0.00 0.00 0.00 44 1020.4
20260503182420 22 217 0.0 0.0 0.00 0.00 0.00 53 1020.8
20260503181917 22 238 0.0 0.0 0.00 0.00 0.00 42 1020.6
20260503181414 22 190 0.0 0.0 0.00 0.00 0.00 50 1020.9
20260503180910 22 194 0.0 0.0 0.00 0.00 0.00 46 1020.8
20260503180408 22 235 0.0 0.0 0.00 0.00 0.00 52 1020.8
20260503175904 21 140 0.0 0.0 0.00 0.00 0.00 43 1020.8
20260503175403 22 182 0.0 0.0 0.00 0.00 0.00 45 1021.0
20260503174858 22 217 0.0 0.0 0.00 0.00 0.00 55 1021.0
20260503174356 21 189 0.0 0.0 0.00 0.00 0.00 52 1021.1
20260503173851 20 146 0.0 0.0 0.00 0.00 0.00 52 1020.9
20260503173348 21 201 0.0 0.0 0.00 0.00 0.00 48 1021.2
20260503172844 22 248 0.0 0.0 0.00 0.00 0.00 48 1021.1
20260503172342 21 196 0.0 0.0 0.00 0.00 0.00 47 1021.2
20260503171838 21 244 0.0 0.0 0.00 0.00 0.00 44 1021.3
20260503171335 21 208 0.0 0.0 0.00 0.00 0.00 45 1021.3
20260503170832 21 205 0.0 0.0 0.00 0.00 0.00 42 1021.2
20260503170328 21 213 0.0 0.0 0.00 0.00 0.00 42 1021.2
20260503150721 18 237 0.0 0.0 0.00 0.00 0.00 64 1022.3
20260503150217 18 218 0.0 0.0 0.00 0.00 0.00 74 1022.3
20260503140141 15 221 0.0 0.0 0.00 0.00 0.00 91 1022.4
20260503131111 11 241 0.0 0.0 0.00 0.00 0.00 99 1022.1
20260503130609 11 180 0.0 0.0 0.00 0.00 0.00 99 1021.9
20260503130106 11 166 0.0 0.0 0.00 0.00 0.00 99 1022.0
20260503110458 8 227 0.0 0.0 0.00 0.00 0.00 99 1020.9
20260503090350 7 235 0.0 0.0 0.00 0.00 0.00 99 1019.7
20260503081312 8 235 0.0 0.0 0.00 0.00 0.00 99 1018.7
20260503080808 8 235 0.0 0.0 0.00 0.00 0.00 99 1019.0
20260503080305 8 235 0.0 0.0 0.00 0.00 0.00 99 1018.9
20260503072741 8 232 0.0 0.0 0.00 0.00 0.00 99 1018.7
20260503072238 8 232 0.0 0.0 0.00 0.00 0.00 99 1018.9
20260503071735 9 232 0.0 0.0 0.00 0.00 0.00 99 1018.7
20260503071231 9 232 0.0 0.0 0.00 0.00 0.00 99 1018.8
20260503070728 9 232 0.0 0.0 0.00 0.00 0.00 99 1018.6
20260503070226 9 232 0.0 0.0 0.00 0.00 0.00 99 1018.6
20260503060151 10 232 0.0 0.0 0.00 0.00 0.00 99 1018.4
20260503054638 10 232 0.0 0.0 0.00 0.00 0.00 99 1018.3
20260503054135 10 232 0.0 0.0 0.00 0.00 0.00 99 1018.4
20260503053633 10 232 0.0 0.0 0.00 0.00 0.00 99 1018.6
20260503053132 10 232 0.0 0.0 0.00 0.00 0.00 99 1018.5
20260503052628 10 232 0.0 0.0 0.00 0.00 0.00 99 1018.4
20260503052124 10 232 0.0 0.0 0.00 0.00 0.00 99 1018.3
20260503051619 10 232 0.0 0.0 0.00 0.00 0.00 99 1018.5
20260503051118 10 232 0.0 0.0 0.00 0.00 0.00 99 1018.1
20260503050614 10 233 0.0 0.0 0.00 0.00 0.00 99 1018.3
20260503050110 10 233 0.0 0.0 0.00 0.00 0.00 99 1018.1
20260503045608 11 233 0.0 0.0 0.00 0.00 0.00 99 1018.3
20260503045105 11 235 0.0 0.0 0.00 0.00 0.00 99 1018.2
20260503044601 11 235 0.0 0.0 0.00 0.00 0.00 99 1018.3
20260503044059 11 230 0.0 0.0 0.00 0.00 0.00 99 1018.2
20260503043555 11 230 0.0 0.0 0.00 0.00 0.00 99 1018.1
20260503043052 11 230 0.0 0.0 0.00 0.00 0.00 99 1018.0
20260503042549 11 231 0.0 0.0 0.00 0.00 0.00 99 1018.0
20260503042045 11 231 0.0 0.0 0.00 0.00 0.00 99 1018.1
20260503041542 11 231 0.0 0.0 0.00 0.00 0.00 99 1018.0
20260503041040 11 231 0.0 0.0 0.00 0.00 0.00 99 1018.0
20260503040537 11 230 0.0 0.0 0.00 0.00 0.00 99 1017.8
20260503040034 11 230 0.0 0.0 0.00 0.00 0.00 99 1017.9